Back to catalog

YOUXI

AliveScienceSSO
NORAD 69097·PAYLOAD·🇨🇳 China
This satellite name has not been confirmed by official sources yet.

Launched May 15, 2026 from Jiuquan Satellite Launch Center

Loading…

Next Passes (next 24 hours)

TLE

FreshSource: Space-Track

Epoch: Sep 14, 2026, 13:46 UTC

1 69097U 26106A   26257.57412583  .00005601  00000-0  32912-3 0  9995
2 69097  97.5046 338.0876 0013098 211.7551 148.2891 15.12022416 18480

Track YOUXI in real time with AllMySat

Download on the App Store